Terminal Aerodrome Forecast
Issued by NWS Kansas City/Pleasant Hill, MO

Home | Current Version | Previous Version | Text Only | Print | Product List | Glossary On
Versions: 1 2 3 4 5 6 7 8 9 10 11 12 13 14 15
753
FTUS43 KEAX 121120
TAFMCI
TAF
KMCI 121120Z 1212/1312 36012KT P6SM BKN025
     FM121800 35012G20KT P6SM SCT030
     FM122300 03009KT P6SM SCT100=

USA.gov is the U.S. government's official web portal to all federal, state and local government web resources and services.